User: anonymous   Login
Location: Unspecified
(0.0000°N, 0.0000°E)
Time: 00:09:39
(UTC+00:00)
Language:

YAOGAN 11 - Orbit

View from above orbital plane
View from above orbital plane
View from above satellite
View from above satellite

Ground track
Ground track

The orbit data is extracted from the following two-line orbital elements,

1 37165U 10047A   18112.55329939  .00000080  00000-0  19370-4 0  9994
2 37165  98.2962 189.2338 0037898  38.3099 322.0794 14.76530427408324
Epoch (UTC): 22 April 2018 13:16:45
Eccentricity: 0.0037898
inclination: 98.2962°
perigee height: 614 km
apogee height: 667 km
right ascension of ascending node: 189.2338°
argument of perigee: 38.3099°
revolutions per day: 14.76530427
mean anomaly at epoch: 322.0794°
orbit number at epoch: 40832

The dashed part of the orbit path shows where the satellite is in the earth's shadow,  

DLR